Emu Heights Real Estate, NSW, 2750 Penrith

Thinking about buying in Emu Heights? Now could not be a better time, with a whopping 1450 properties either residential or commercial there's certainly plenty to choose from.

The average property price for this area is $816,000 with prices in this suburb ranging from $648,000 to $972,000.

Distance to the coast is 50 Km.

Emu Heights Real Estate Market Outlook

Prices are above market average and increase steadily under persistent demand. A more sustainable rate of price growth is anticipated in the short to medium term. In this area of average incomes, there is a mix of housing size and quality. While this may present buying opportunities, growth may be constrained. As buyers begin to examine Emu Heights due to other areas being out of the price range and the trend to working from home, "gentrification" may incease price growth. A mix of professions and above average income earners in Emu Heights provides good demand. The lower than average housing turnover of these people also means fewer regular listings leading to periodic large price increases. Medium density in Emu Heights necessitates a mix of lifestyle options for housing, shops, open areas, and facilties. Where this is available, demand is high and growth ensured. Lower than average industry presence in Emu Heights we believe will be less of a negative impact than it has in the past. Post-COVID and the growth in working from home has lessened the demand for local employment options. This may make Emu Heights a better buying opportunity than it may have been in the past.

About

Properties For Sale

First National 22 TRAFALGAR RD, EMU HEIGHTS, NSW, 2750 4 3 1 Just Listed

Local Schools


None within suburb boundary

(While the above schools are located with the suburb of Emu Heights there may also be nearby schools whose catchments cover this suburb)

Local Crime Rates


Average Local Climate by month


(mm)
RAIN
Min (°C)
TEMP
Max (°C)
TEMP
Min (%)
HUMIDITY
Max (%)
HUMIDITY
(m/sec)
WIND
(MJ/sq m)
SOLAR
Jan2.518.631.642.294.32.922.2
Feb3.518.029.746.295.12.718.8
Mar4.615.92749.996.02.415.5
Apr2.212.224.647.496.72.014.0
May1.17.221.146.996.71.711.4
Jun2.35.818.054.2971.99.2
Jul0.63.718.643.994.72.210.7
Aug1.14.320.037.892.82.613.2
Sept1.17.623.234.593.22.917.3
Oct1.511.625.338.794.12.819.7
Nov2.314.828.239.994.12.922.6
Dec2.616.629.839.994.3323.7

source: Australian Government Bureau of Meteorology

Recently Sold Properties / House Prices

26-07-2022 $885,000 29 GOSLING ST EMU HEIGHTS 2750
12-07-2022 $952,500 3 TARPAN PL EMU HEIGHTS 2750
08-07-2022 $1,796,000 117 RUSSELL ST EMU HEIGHTS 2750
23-06-2022 $850,000 14 OUTLOOK AVE EMU HEIGHTS 2750
03-06-2022 $905,000 46 PALOMINO RD EMU HEIGHTS 2750
30-05-2022 $1,250,000 28 INKERMAN RD EMU HEIGHTS 2750
26-05-2022 $835,000 37 DARTMOOR CCT EMU HEIGHTS 2750
26-05-2022 $1,167,075 9 HESSEL PL EMU HEIGHTS 2750
25-05-2022 $2,875,000 29 BROMLEY RD EMU HEIGHTS 2750
25-05-2022 $1,160,000 22 MIRRABOOKA CT EMU HEIGHTS 2750
13-05-2022 $1,200,000 45 GREENHAVEN DR EMU HEIGHTS 2750
13-05-2022 $920,000 32 MIRRABOOKA CT EMU HEIGHTS 2750
10-05-2022 $790,000 74 OLD BATHURST RD EMU HEIGHTS 2750
09-05-2022 $5,050,000 109 RUSSELL ST EMU HEIGHTS 2750
06-05-2022 $950,000 22 LANDAIS PL EMU HEIGHTS 2750
22-04-2022 $840,000 85 WEDMORE RD EMU HEIGHTS 2750
11-04-2022 $820,000 10 INKERMAN RD EMU HEIGHTS 2750
31-03-2022 $837,000 7 TARPAN PL EMU HEIGHTS 2750
21-03-2022 $921,500 6 KILLURAN AVE EMU HEIGHTS 2750
08-03-2022 $880,500 6 TARPAN PL EMU HEIGHTS 2750
02-03-2022 $975,000 56 PALOMINO RD EMU HEIGHTS 2750
16-02-2022 $814,000 11 OLD BATHURST RD EMU HEIGHTS 2750
14-02-2022 $955,000 22 ANNIE SPENCE CL EMU HEIGHTS 2750
11-02-2022 $975,000 8 HAFLINGER CL EMU HEIGHTS 2750
25-01-2022 $1,220,000 24 INKERMAN RD EMU HEIGHTS 2750
24-01-2022 $1,050,000 2 ALMA CRES EMU HEIGHTS 2750
24-01-2022 $790,000 3 PARKWOOD GR EMU HEIGHTS 2750
19-01-2022 $1,295,000 21 GOSLING ST EMU HEIGHTS 2750
13-01-2022 $1,100,551 67 GREENHAVEN DR EMU HEIGHTS 2750
21-12-2021 $750,000 1 / 145 RUSSELL ST EMU HEIGHTS 2750
20-12-2021 $965,000 31 WEDMORE RD EMU HEIGHTS 2750
17-12-2021 $850,000 16 SALERNO CL EMU HEIGHTS 2750
13-12-2021 $800,000 5 HILLCREST RD EMU HEIGHTS 2750
13-12-2021 $876,000 60 PALOMINO RD EMU HEIGHTS 2750
06-12-2021 $570,000 26 STRATHDON RD EMU HEIGHTS 2750
03-12-2021 $982,860 25 MATTHEWS ST EMU HEIGHTS 2750
26-11-2021 $933,000 2 TARPAN PL EMU HEIGHTS 2750
25-11-2021 $1,465,000 10 HAFLINGER CL EMU HEIGHTS 2750
16-11-2021 $885,000 22 BALACLAVA RD EMU HEIGHTS 2750
16-11-2021 $1,150,000 8 GREENHAVEN DR EMU HEIGHTS 2750
16-11-2021 $885,000 22 BALACLAVA RD EMU HEIGHTS 2750
16-11-2021 $1,150,000 8 GREENHAVEN DR EMU HEIGHTS 2750
15-11-2021 $785,000 30 GREENHAVEN DR EMU HEIGHTS 2750
15-11-2021 $1,475,000 1 RIVERBANK DR EMU HEIGHTS 2750
15-11-2021 $785,000 30 GREENHAVEN DR EMU HEIGHTS 2750
15-11-2021 $1,475,000 1 RIVERBANK DR EMU HEIGHTS 2750
12-11-2021 $1,211,253 6 BALACLAVA RD EMU HEIGHTS 2750
02-11-2021 $800,000 24 SALERNO CL EMU HEIGHTS 2750
14-10-2021 $1,187,000 9 HAFLINGER CL EMU HEIGHTS 2750
07-10-2021 $325,000 5 OLD BATHURST RD EMU HEIGHTS 2750

Internet Speed

  • Fibre to the Basement (vectored or non-vectored)
  • Fibre to the Curb
  • Fibre to the Node
  • Fibre to the Premises
  • Fixed Wireless
  • Satellite

Residz covers 12m+ Australian properties and brings together a wealth of data to give you a better understanding of an area. From crime and schools to bush fire, flood risk and more. Begin your search for properties for sale or learn more about where you currently reside. Residz is an exciting next-generation Real Estate platform getting better by the day!